Location: Benton A Staley Middle School
(33.1566°N, 96.8239°W)
Time: 03:45:07
(UTC+00:00)

Daily predictions for brighter satellites

Satellite Brightness Start Highest point End
(mag) Time Altitude Azimuth Time Altitude Azimuth Time Altitude Azimuth
Cosmos 2233 Rocket 4.3 01:40:59 10° N 01:47:19 80° W 01:53:36 10° S
Resurs 01 Rocket 2.7 01:46:57 10° SE 01:50:42 28° ENE 01:54:27 10° NNE
Cosmos 1602 4.3 01:50:49 10° NNW 01:54:19 54° W 01:57:47 10° S
Cosmos 2237 Rocket 3.6 01:50:59 10° SW 01:56:24 45° WNW 02:01:50 10° N
SL-24 R/B - RUBIN 2 4.4 01:51:18 10° SSW 01:57:07 86° ESE 02:03:37 10° NNE
Cosmos 1782 2.7 01:56:23 10° S 02:00:06 57° E 02:03:51 10° NNE
BREEZE-M DEB (TANK) 4.0 01:58:10 10° W 02:01:04 43° NNW 02:05:41 10° NE
OAO 2 Rocket 3.5 01:59:52 10° W 02:05:11 79° N 02:10:26 10° E
Meteor 2-14 Rocket 4.5 01:59:09 10° S 02:05:18 83° E 02:11:27 10° N
H-2A R/B 0.8 02:04:02 10° SW 02:05:45 21° S 02:06:29 16° SE
Okean O Rocket 2.4 02:02:16 10° SE 02:06:15 34° ENE 02:10:16 10° N
Cosmos-2242 2.9 02:03:11 10° S 02:07:23 87° E 02:11:37 10° N
USA 290 4.2 02:10:45 10° NNE 02:12:50 16° ENE 02:14:20 12° E
Aureole 2 3.9 02:13:29 10° NNW 02:16:21 87° E 02:19:08 11° SSE
Feng Yun 1-1 Rocket 4.4 02:14:09 10° SSE 02:19:59 73° ENE 02:25:54 10° N
DELTA 2 DEB (DPAF) 4.0 02:19:05 10° NNE 02:23:20 86° W 02:27:32 10° SSW
SL-8 R/B 4.1 02:21:26 10° WSW 02:26:08 64° NW 02:30:50 10° NE
Cosmos 1943 Rocket 2.2 02:20:48 10° NNW 02:26:29 86° ENE 02:31:46 12° SSE
SPOT 1/Viking Rocket 4.2 02:23:01 10° S 02:28:05 56° W 02:33:09 10° NNW
FALCON 9 R/B 2.6 02:33:08 10° W 02:37:06 79° N 02:49:36 10° E
Cosmos 494 Rocket 4.5 02:33:50 10° SSE 02:38:27 37° E 02:43:07 10° NE
Cosmos 2221 2.8 02:36:34 15° SSE 02:39:49 47° E 02:43:57 10° NNE
CZ-4B R/B 3.6 02:36:27 10° S 02:41:45 60° WSW 02:47:00 10° NNW
ATLAS 3B R/B 3.3 02:36:10 10° NNW 02:43:52 55° NE 02:48:59 22° SE
USA 186 3.5 02:43:07 10° SSW 02:45:54 30° W 02:48:45 10° NW
Okean-O 2.9 02:43:47 24° SE 02:46:08 49° ENE 02:50:23 10° N
Cosmos 2278 Rocket 3.7 02:41:28 10° NW 02:46:30 34° WSW 02:51:31 10° SSW
Centaur D AC-29 2.7 02:42:44 10° SW 02:46:40 36° SSE 02:57:58 10° E
Cosmos 1464 Rocket 4.0 02:41:02 10° N 02:47:19 87° W 02:53:29 10° S
ATLAS 5 CENTAUR R/B 4.2 02:43:43 10° WNW 02:48:20 25° WSW 02:53:35 10° SSW
CZ-4C R/B 3.2 02:45:49 10° NNE 02:49:40 74° ESE 02:53:10 13° S
CARTOSAT-1 4.0 02:46:38 12° S 02:50:30 60° W 02:54:44 10° NNW
Meteor 1-26 Rocket 4.5 02:50:57 10° S 02:56:59 80° W 03:03:03 10° N
Cosmos 2297 4.4 02:52:22 10° N 02:57:41 38° ENE 03:00:02 27° ESE
Cosmos 921 Rocket 3.0 02:53:47 10° SSW 02:58:13 87° ESE 03:02:43 10° NNE
Cosmos 1371 Rocket 4.3 02:55:15 10° N 03:00:29 52° ENE 03:02:41 32° SE
OAO 3 Copernicus 4.3 02:55:43 10° WNW 03:00:45 73° SSW 03:02:55 34° ESE
Lacrosse 5 1.9 02:58:28 10° NNW 03:03:34 68° NE 03:05:39 35° ESE
MOS 1 4.3 03:01:43 27° SSE 03:04:54 71° ENE 03:10:33 10° N
Cosmos 1420 Rocket 3.9 03:03:36 10° NNW 03:08:55 77° ENE 03:11:13 35° SSE
OAO 1 4.4 03:05:03 10° WSW 03:10:27 65° SSE 03:13:34 25° E
Terra 2.8 03:11:35 29° E 03:12:14 30° ENE 03:16:19 10° N
SL-16 R/B 4.0 03:10:59 10° SW 03:16:02 33° WNW 03:21:07 10° N
IRS-1A Rocket 4.4 03:16:28 37° SE 03:18:33 60° ENE 03:24:03 10° N
Cosmos 1603 4.0 03:17:41 39° SE 03:18:39 43° ESE 03:23:59 10° NE
USA 308 4.3 03:17:01 10° W 03:19:11 18° SW 03:19:18 18° SW
Cosmos 1743 2.8 03:15:53 10° N 03:19:07 51° ENE 03:19:07 51° ENE
Meteor 2-6 Rocket 4.1 03:16:48 24° S 03:20:21 82° E 03:25:54 10° N
Spot 2 Rocket 4.3 03:20:07 32° E 03:20:48 34° ENE 03:25:19 10° N
Cosmos 1634 Rocket 4.1 03:15:08 10° N 03:21:18 58° E 03:23:26 39° SE
GEOS 3 Rocket 3.4 03:16:12 10° NE 03:21:18 67° ESE 03:26:04 11° SSW
SPOT 5 2.6 03:21:11 47° SSE 03:22:30 81° ENE 03:27:00 10° N
Resurs 01 Rocket 3.9 03:23:45 10° SW 03:27:03 21° W 03:30:23 10° NW
NOSS 3-1 (A) 4.4 03:22:19 10° NW 03:30:19 73° WSW 03:35:18 31° SSE
Cosmos 2369 Rocket 2.3 03:27:53 10° NNW 03:33:25 58° ENE 03:34:31 49° ESE
Cosmos 1726 4.1 03:35:49 10° NNE 03:36:42 16° NNE 03:36:42 16° NNE
Okean 3 Rocket 3.8 03:35:58 10° N 03:39:52 54° ENE 03:39:52 54° ENE
Cosmos 1842 Rocket 3.5 03:40:11 66° SSW 03:40:46 81° W 03:45:12 10° N
Okean O Rocket 4.1 03:39:44 10° SW 03:42:34 17° W 03:45:24 10° NW
Ariane Rocket 3.1 03:43:07 55° E 03:43:25 56° ENE 03:48:24 10° N
BREEZE-M DEB (TANK) 4.4 03:20:30 10° SW 03:45:22 88° NW 03:50:15 10° NE
USA 229 DEB 4.3 03:38:15 10° NNW 03:45:49 58° ENE 03:48:32 41° ESE
USA 229 4.3 03:38:21 10° NNW 03:45:55 58° ENE 03:48:38 41° ESE
ARGOS Delta rocket 3.9 03:46:25 66° S 03:47:10 89° W 03:52:08 10° N
OAO 2 Rocket 3.7 03:44:45 10° W 03:49:36 51° SSW 03:49:36 51° SSW
Cosmos 1656 Rocket 3.7 03:44:53 10° NNW 03:50:21 73° WSW 03:51:20 58° SSW
Meteor 1-27 Rocket 4.0 03:51:15 48° E 03:51:15 48° E 03:56:09 10° NNE
Cosmos 1943 3.9 03:50:14 10° SW 03:55:44 52° WNW 04:01:17 10° N
Cosmos 2056 Rocket 4.3 03:51:21 10° NNW 03:56:24 44° WSW 03:57:41 37° SW
Cosmos 1452 Rocket 3.9 03:55:20 10° N 04:00:07 49° ENE 04:00:07 49° ENE
Cosmos 2142 Rocket 4.4 03:56:34 10° N 04:02:55 72° E 04:03:40 65° SE
Cosmos 44 4.2 04:04:10 10° NW 04:08:06 35° WSW 04:08:06 35° WSW
ERS-1 Rocket 3.6 04:15:22 44° WSW 04:15:40 45° W 04:20:29 10° NNW
Meteor 2-9 Rocket 4.5 04:14:38 10° N 04:20:00 61° ENE 04:20:00 61° ENE
USA 59 Rocket 2.6 04:28:50 10° NNE 04:30:55 15° NE 04:30:55 15° NE
MOS 1 Rocket 4.1 04:34:16 50° WNW 04:34:16 50° WNW 04:38:47 10° NNW
ATLAS 3B R/B 4.2 04:27:46 10° NW 04:34:11 29° WSW 04:36:15 25° SW
USA 281 3.0 04:36:16 84° ESE 04:36:28 86° ENE 04:43:05 10° NNW
Lacrosse 5 4.3 04:43:17 10° W 04:44:52 14° WSW 04:44:52 14° WSW
Terra 3.8 04:50:17 21° W 04:50:17 21° W 04:53:22 10° NW
Meteor 1-11 Rocket 4.5 04:47:43 10° NNW 04:52:46 47° W 04:52:46 47° W
Nadezhda 4 Rocket 4.4 04:54:10 52° W 04:54:24 53° W 05:00:28 10° N
Chandra Rocket (1) 3.9 04:52:18 10° W 05:08:13 57° SW 05:08:13 57° SW
Cosmos 1833 Rocket 4.5 05:13:07 22° NE 05:13:07 22° NE 05:15:12 10° NE
CZ-3 Stage 3 3.8 04:43:44 10° WSW 05:15:51 64° S 05:16:07 64° SSE
Cosmos 2369 Rocket 4.4 05:13:52 10° WNW 05:16:18 14° W 05:16:18 14° W
USA 267 3.6 05:46:46 10° NE 05:52:17 61° N 05:52:17 61° N
Lacrosse 4 Rocket 4.4 06:05:31 10° NNW 06:05:57 13° NNW 06:05:57 13° NNW
Cosmos 1697 Rocket 4.2 06:07:19 10° N 06:10:50 32° NNE 06:10:50 32° NNE
Cosmos 1980 Rocket 4.1 06:15:13 10° N 06:19:10 21° NE 06:19:10 21° NE
USA 59 Rocket 2.7 06:16:25 10° NW 06:17:27 18° NW 06:17:27 18° NW
Cosmos 2082 Rocket 3.4 06:54:16 39° NNE 06:54:16 39° NNE 06:57:45 10° NNE
Resurs 1-4 Rocket 4.2 07:17:36 10° NE 07:20:15 19° ENE 07:20:15 19° ENE
Cosmos 1745 Rocket 4.2 07:47:13 66° NE 07:47:13 66° NE 07:52:46 10° N
NOSS 3-4 (A) 4.0 07:49:54 10° NW 07:56:33 67° W 07:56:33 67° W
NOSS 3-4 (C) 3.9 07:50:01 10° NW 07:56:42 68° W 07:56:42 68° W
NPP 4.3 07:52:10 10° NNE 07:56:33 52° ENE 07:56:33 52° ENE
ATLAS CENTAUR R/B 3.9 07:47:31 10° NW 07:59:35 62° WSW 07:59:39 62° WSW
Cosmos 1980 Rocket 3.7 07:58:18 10° NW 08:00:53 26° NW 08:00:53 26° NW
SJ 16-02 3.1 08:06:53 28° ENE 08:06:53 28° ENE 08:09:22 10° NE
USA 234 3.2 08:05:25 54° SE 08:07:04 82° NE 08:13:39 10° NW
ADEOS II 3.2 08:03:06 10° NNE 08:07:43 34° E 08:07:43 34° E
IDEFIX/ARIANE 42P 2.9 08:07:06 10° NNE 08:11:29 63° NNE 08:11:29 63° NNE
Nadezhda 1 Rocket 3.9 08:10:21 10° N 08:16:37 82° WNW 08:16:37 82° WNW
CZ-2C R/B 3.3 08:26:17 10° NNE 08:32:04 71° ESE 08:32:29 68° SE
SL-16 R/B 2.4 08:29:02 10° NNW 08:34:41 68° ENE 08:36:03 50° SE
Cosmos 968 Rocket 3.8 08:41:59 52° NW 08:41:59 52° NW 08:46:27 10° N
AQUA 4.0 08:39:11 10° NNE 08:43:52 63° E 08:43:53 63° ESE
CZ-2D R/B 2.2 08:42:26 10° N 08:47:48 60° WNW 08:47:51 60° WNW
CRYOSAT 2 4.3 08:43:00 10° N 08:47:46 85° NNW 08:47:46 85° NNW
Cosmos 1709 Rocket 4.2 08:48:17 51° W 08:48:37 51° W 08:54:47 10° N
BREEZE-M R/B 4.2 08:47:03 37° WNW 08:48:50 51° NNW 09:01:40 10° NE
SL-16 R/B 3.2 08:46:58 13° SE 08:52:27 52° ENE 08:58:30 10° N
Meteor 1-24 Rocket 3.8 08:51:31 55° S 08:52:55 81° E 08:58:57 10° N
DELTA 2 R/B (1) 4.4 08:49:49 16° WNW 08:54:00 47° N 08:59:22 10° E
Cosmos 2237 4.1 08:49:24 10° NNW 08:55:06 69° WSW 08:55:27 67° SW
OAO 3 Rocket 3.3 08:54:36 66° NW 08:55:08 75° N 09:00:02 10° E
Cosmos 1892 4.4 08:55:11 23° E 08:55:26 24° E 08:58:18 10° NE
Cosmos 2360 Rocket 3.1 08:50:52 10° N 08:56:20 47° ENE 09:01:46 10° SE
Cosmos 841 Rocket 4.4 08:52:42 10° NNW 08:56:15 35° WNW 08:56:15 35° WNW
Resurs 1-4 Rocket 2.7 08:56:20 10° N 09:01:13 40° WNW 09:01:18 40° WNW
Cosmos 2181 Rocket 4.2 08:55:01 10° N 09:01:20 70° E 09:04:59 26° SSE
SL-4 R/B 2.2 09:06:31 65° NW 09:06:31 65° NW 09:10:53 10° NE
Tiangong -0.4 09:08:06 31° ENE 09:08:06 31° ENE 09:09:51 10° ENE
FENGYUN 3A 3.7 09:07:23 10° N 09:12:38 58° WNW 09:13:35 50° WSW
CZ-2C R/B 2.8 09:15:09 46° W 09:15:09 46° W 09:20:04 10° NNW
IRAS Rocket 4.1 09:10:32 10° NNE 09:16:03 86° WNW 09:17:50 45° SSW
Cosmos 2278 4.4 09:11:27 10° NW 09:15:52 34° W 09:15:52 34° W
Cosmos 2098 Rocket 3.7 09:12:18 10° N 09:17:54 83° W 09:21:18 29° S
SL-8 R/B 3.5 09:15:11 10° NW 09:19:58 87° SW 09:24:45 10° SE
Cosmos 1674 Rocket 3.5 09:20:36 53° S 09:21:37 86° E 09:26:04 10° N
SL-24 R/B 4.5 09:21:52 50° SW 09:22:33 55° W 09:27:17 10° NNW
Lacrosse 5 rocket 1.1 09:20:31 10° NW 09:24:29 83° NE 09:28:16 10° SE
Cosmos 1814 Rocket 3.9 09:21:27 10° NNW 09:26:41 75° WSW 09:29:48 25° S
Okean 2 Rocket 3.6 09:22:32 10° N 09:26:53 58° E 09:30:06 17° SSE
Cosmos 2333 Rocket 2.2 09:24:36 10° NNW 09:30:21 85° ENE 09:36:06 10° SSE
Cosmos 405 Rocket 3.5 09:30:26 10° N 09:33:56 48° E 09:36:44 15° SSE
Cosmos 1295 Rocket 4.4 09:30:42 29° SSW 09:34:01 80° W 09:40:08 10° N
Cosmos 2322 Rocket 2.2 09:28:30 10° NNW 09:34:02 58° WSW 09:37:44 21° S
Meteor 2-5 Rocket 4.3 09:32:53 34° WSW 09:34:33 42° WNW 09:40:09 10° N
Cosmos 2297 Rocket 4.1 09:31:15 10° SSE 09:35:40 24° ESE 09:40:07 10° NE
ATLAS CENTAUR R/B 1.4 09:36:07 42° SSE 09:36:50 51° ESE 09:40:14 10° NE
Cosmos 1378 Rocket 3.8 09:38:01 42° WSW 09:38:40 46° W 09:42:48 10° N
Cosmos 1486 Rocket 4.1 09:36:16 27° S 09:39:09 72° ESE 09:44:21 10° NNE
OAO 1 Rocket 4.5 09:37:31 28° W 09:40:23 77° N 09:45:40 10° E
ALOS 2.7 09:38:11 10° N 09:42:32 42° WNW 09:43:48 34° WSW
SJ 16-02 3.3 09:43:39 15° WNW 09:43:51 15° WNW 09:46:19 10° NNW
Cosmos 1570 Rocket 4.5 09:40:07 10° N 09:45:23 63° ENE 09:50:39 10° SSE
ADEOS II 3.4 09:43:05 10° NNW 09:47:11 24° WNW 09:48:35 21° W
Cosmos 2074 Rocket 4.3 09:47:32 27° SW 09:50:38 48° W 09:56:38 10° N
Meteor 1-28 Rocket 4.3 09:51:23 25° WNW 09:51:23 25° WNW 09:53:44 10° NW
Okean 1 Rocket 3.2 09:48:23 10° N 09:52:41 70° E 09:56:58 10° SSE
UNK 3.7 09:51:38 17° S 09:55:05 61° WSW 09:59:42 10° NNW
COSMOS 2455 3.9 09:51:04 10° S 09:56:34 40° ESE 10:02:08 10° NE
METEOR-M 4.1 09:52:53 10° N 09:58:13 73° WNW 10:02:09 19° SSW
CZ-2C R/B 2.3 09:54:20 10° NNE 09:59:03 78° ESE 10:02:57 14° S
IRS-1D 3.9 09:56:54 10° NNE 10:02:12 69° ESE 10:07:25 10° S
Envisat 3.0 09:57:55 10° N 10:02:56 64° WNW 10:06:34 19° SSW
Cosmos 158 Rocket 4.5 10:02:20 10° N 10:07:40 65° ENE 10:12:55 10° SSE
CZ-4C R/B 3.7 10:05:34 10° SSE 10:08:45 22° ESE 10:12:19 10° ENE
Delta 2 Rocket 4.3 10:08:34 20° WSW 10:12:23 43° S 10:18:03 10° ESE
RESURS DK-1 2.7 10:08:50 10° NW 10:12:40 41° WSW 10:16:29 10° S
Atlas Centaur 2 2.5 10:14:56 17° SSW 10:16:50 25° SSE 10:19:51 10° ESE
SL-16 R/B 4.0 10:15:50 10° WNW 10:17:48 12° W 10:17:48 12° W
Cosmos 2322 4.0 10:15:05 10° NNW 10:20:46 72° ENE 10:26:24 10° SSE
Cosmos 1825 3.5 10:20:53 17° W 10:21:46 18° WNW 10:24:14 10° NNW
Cosmos 1975 Rocket 3.1 10:18:34 10° S 10:22:52 80° E 10:27:10 10° N
Nadezhda 3 Rocket 4.2 10:20:27 10° NNW 10:26:34 51° W 10:32:35 10° SSW
Thor Agena Rocket 3.6 10:25:05 10° N 10:30:16 65° WNW 10:35:27 10° SSW
Cosmos 2219 Rocket 2.4 10:25:43 10° NNW 10:31:09 50° WSW 10:36:36 10° S
YAOGAN 6 3.1 10:29:05 10° N 10:32:07 35° WNW 10:34:44 13° SW
SL-24 DEB 4.4 10:28:53 10° N 10:33:16 52° W 10:37:39 10° SSW
SL-16 R/B 3.8 10:32:02 11° SW 10:36:13 20° W 10:40:43 10° NW
Cosmos 2341 Rocket 4.0 10:30:33 10° SSW 10:36:47 73° W 10:43:02 10° N
OAO 3 Rocket 3.3 10:33:40 10° W 10:38:28 56° SSW 10:43:13 10° SE
Cosmos 2360 Rocket 3.5 10:36:02 10° WNW 10:39:51 19° W 10:43:40 10° SW
DELTA 2 R/B (1) 3.5 10:35:07 10° WNW 10:40:41 80° SSW 10:46:13 10° ESE
COSMOS 2428 2.8 10:35:26 10° NNW 10:41:08 85° ENE 10:46:50 10° SSE
Cosmos 2366 rocket 4.1 10:36:46 10° S 10:43:06 81° W 10:49:29 10° N
Tiangong -0.1 10:41:05 10° WNW 10:43:36 22° NNW 10:46:06 10° NE
ATLAS 2AS CENTAUR R/B 2.6 10:38:40 10° NW 10:45:20 69° WSW 10:51:49 10° SSE
Cosmos 1025 Rocket 4.3 10:42:34 10° SW 10:46:09 25° WNW 10:49:44 10° NNW
Geosat 4.3 10:41:39 10° S 10:46:25 44° WSW 10:51:12 10° NW
ASTEX 1 4.0 10:42:47 10° SSW 10:47:21 38° W 10:51:55 10° NNW
H-2A R/B 2.3 10:44:58 10° NNE 10:50:26 84° ESE 10:55:51 10° SSW
In-Cosmos 22 Rocket 4.3 10:46:42 10° SSW 10:52:03 62° W 10:57:34 10° N
Cosmos 1455 Rocket 3.2 10:49:29 10° NNW 10:53:46 55° W 10:58:04 10° S
Cosmos 2237 Rocket 3.9 10:49:21 10° N 10:54:40 40° ENE 10:59:56 10° SE
Cosmos 2227 Rocket 2.7 10:50:22 10° S 10:55:57 66° ESE 11:01:35 10° NNE
ARIANE 5 R/B 4.4 10:52:07 10° NE 10:56:34 31° E 11:00:56 10° SSE
